Location: Dürabuch
(48.2640°N, 11.2185°E)
Time: 18:25:54
(UTC+00:00)

CZ-2D R/B - Pass Details

Date: 26 May 2025
Orbit: 790 x 841 km, 98.8° (Epoch: 16 June)

Event Time Altitude Azimuth Distance (km) Brightness Sun altitude
Rises 02:37:02 0° 9° (N) 3,409 6.3 -6.9°
Reaches altitude 10° 02:39:32 10° 2° (N) 2,471 5.3 -6.6°
Maximum altitude 02:44:34 39° 295° (WNW) 1,247 2.9 -5.9°
Drops below altitude 10° 02:49:34 10° 228° (SW) 2,448 3.9 -5.3°
Enters shadow 02:50:30 - 225° (SW) 2,788 4.2 -5.2°
